Flag for U.S.A. Weather past 2 weeks in Anderson, South Carolina, U.S.A.

Now
45 °F

Partly cloudy.


Feels Like: 42 °F
Forecast: 35 / 54 °F
Wind: 6 mph from Southwest

Location: Anderson County Airport

Current Time: Mar 27, 2015 at 10:02:58 PM

Latest Report: Mar 27, 2015 at 8:56 PM


Visibility: 10 mi

Pressure: 29.84 "Hg

Humidity: 82%

Dew point: 40 °F

Location of AndersonLocation

Historic Weather in Anderson — Graph

°F

Anderson temperature yesterday

Maximum temperature yesterday: 73 °F (at 2:56 PM)
Minimum temperature yesterday: 53 °F (at 4:56 AM)
Average temperature yesterday: 62 °F

Past Weeks' High & Low Weather Summary

 TemperatureHumidityPressure
High84 °F (Mar 16, 4:56 PM)100% (Mar 21, 7:03 AM)30.45 "Hg (Mar 21, 7:03 AM)
Low39 °F (Mar 16, 7:56 AM)10% (Mar 16, 2:56 PM)29.64 "Hg (Mar 27, 3:56 AM)
Average58 °F70%30.07 "Hg
* Reported Mar 12 8:56 PM — Mar 27 8:56 PM, Anderson, Weather by CustomWeather, © 2015

Note: Actual official high and low records may vary slightly from our data, if they occured in-between our weather recording intervals... More about our weather records

Advertising

Anderson weather history for previous 24 hours

 ConditionsComfort  
Time TempWeatherWind HumidityBarometerVisibility
8:56 PM
Fri, Mar 27
45 °FPartly cloudy.6 mph82%29.84 "Hg10 mi
7:56 PM48 °FLight rain. Mostly cloudy.No wind68%29.81 "Hg10 mi
6:56 PM49 °FBroken clouds.7 mph66%29.79 "Hg10 mi
5:56 PM50 °FPartly sunny.9 mph71%29.76 "Hg10 mi
4:56 PM50 °FLight rain. Mostly cloudy.7 mph77%29.75 "Hg7 mi
3:56 PM54 °FOvercast.6 mph67%29.74 "Hg10 mi
2:56 PM53 °FOvercast.6 mph72%29.74 "Hg10 mi
1:56 PM53 °FOvercast.7 mph74%29.74 "Hg10 mi
12:56 PM51 °FLight rain. Overcast.8 mph86%29.75 "Hg10 mi
11:56 AM53 °FOvercast.9 mph77%29.74 "Hg10 mi
10:56 AM54 °FOvercast.6 mph77%29.72 "Hg10 mi
9:56 AM54 °FOvercast.8 mph80%29.70 "Hg10 mi
8:56 AM57 °FOvercast.5 mph81%29.70 "Hg10 mi
7:56 AM58 °FOvercast.No wind78%29.68 "Hg10 mi
6:56 AM58 °FOvercast.5 mph81%29.65 "Hg10 mi
5:56 AM59 °FOvercast.6 mph81%29.64 "Hg10 mi
4:56 AM61 °FMostly cloudy.5 mph75%29.64 "Hg10 mi
3:56 AM62 °FMostly cloudy.5 mph75%29.64 "Hg10 mi
2:56 AM61 °FPassing clouds.5 mph87%29.67 "Hg10 mi
1:56 AM62 °FPassing clouds.6 mph83%29.70 "Hg10 mi
12:56 AM62 °FPassing clouds.9 mph83%29.71 "Hg10 mi
11:56 PM
Thu, Mar 26
63 °FClear.10 mph81%29.73 "Hg10 mi
10:56 PM63 °FClear.10 mph78%29.74 "Hg10 mi
Weather by CustomWeather, © 2015

See weather overviewHow to use our weather pages